Tracking 19246 objects as of 20-Aug-2018
HD Live streaming from Space Station
objects crossing your sky now

HINCUBE

Track HINCUBE now!
10-day predictions
HINCUBE is classified as:


NORAD ID: 39445
Int'l Code: 2013-066AF
Perigee: 591.5 km
Apogee: 671.2 km
Inclination: 97.6 °
Period: 97.2 minutes
Semi major axis: 7002 km
RCS: Unknown
Launch date: November 21, 2013
Source: Norway (NOR)
Launch site: Orenburg, Russia (OREN)
Uplink (MHz):
Downlink (MHz): 437.305
Beacon (MHz):
Mode:
Call sign:
Status: Inactive

aabbcc
Your satellite tracking list
Your tracking list is empty




NASA's NSSDC Master Catalog

Two Line Element Set (TLE):
1 39445U 13066AF  18231.62194868  .00000202  00000-0  31527-4 0  9996
2 39445  97.5859 258.3872 0056884 304.3099  55.2737 14.81617997254603
Source of the keplerian elements: AFSPC